Location: Brantley
(31.5822°N, 86.2569°W)
Time: 03:46:13
(UTC+00:00)

Vanguard 2 - Pass Details

Date: 25 February 2026
Orbit: 553 x 2896 km, 32.9° (Epoch: 7 March)

Event Time Altitude Azimuth Distance (km) Brightness Sun altitude
Rises 13:57:48 0° 281° (W) 3,327 10.2 19.8°
Reaches altitude 10° 14:00:42 10° 274° (W) 2,156 9.4 20.3°
Maximum altitude 14:05:04 39° 205° (SSW) 888 8.1 21.2°
Drops below altitude 10° 14:08:45 10° 135° (SE) 1,815 11.0 21.9°
Sets 14:11:00 0° 127° (SE) 2,725 11.8 22.3°
